Flag for Switzerland Weather past 2 weeks in Spiez, Bern, Switzerland

Now
53 °F

Cool.


Feels Like: 50 °F
Forecast: 43 / 55 °F
Wind: 12 mph from Northwest

Location: Interlaken

Current Time: Mar 28, 2015 at 3:54:15 PM

Latest Report: Mar 28, 2015 at 3:00 PM


Visibility: N/A

Pressure: 30.09 "Hg

Humidity: 49%

Dew point: 35 °F

Location of SpiezLocation

Historic Weather in Spiez — Graph

°F

Spiez temperature yesterday

Maximum temperature yesterday: 51 °F (at 4:00 PM)
Minimum temperature yesterday: 40 °F (at 8:00 AM)
Average temperature yesterday: 45 °F

Past Weeks' High & Low Weather Summary

 TemperatureHumidityPressure
High64 °F (Mar 18, 4:00 PM)97% (Mar 22, 3:00 AM)30.34 "Hg (Mar 22, 3:00 AM)
Low30 °F (Mar 15, 7:00 AM)30% (Mar 17, 5:00 PM)29.59 "Hg (Mar 25, 2:00 PM)
Average45 °F70%30.05 "Hg
* Reported Mar 13 2:00 PM — Mar 28 2:00 PM, Spiez, Weather by CustomWeather, © 2015

Note: Actual official high and low records may vary slightly from our data, if they occured in-between our weather recording intervals... More about our weather records

Advertising

Spiez weather history for previous 24 hours

 ConditionsComfort  
Time TempWeatherWind HumidityBarometerVisibility
2:00 PM
Sat, Mar 28
53 °FCool.10 mph42%30.11 "HgN/A
1:00 PM53 °FCool.10 mph41%30.14 "HgN/A
12:00 PM50 °FCool.6 mph51%30.17 "HgN/A
11:00 AM48 °FCool.6 mph53%30.20 "HgN/A
10:00 AM44 °FQuite cool.2 mph63%30.25 "HgN/A
9:00 AM38 °FChilly.2 mph82%30.29 "HgN/A
8:00 AM33 °FChilly.No wind84%30.33 "HgN/A
7:00 AM32 °FChilly.No wind89%30.34 "HgN/A
6:00 AM32 °FChilly.No wind89%30.34 "HgN/A
5:00 AM33 °FChilly.No wind86%30.34 "HgN/A
3:00 AM35 °FChilly.5 mph80%30.32 "HgN/A
2:00 AM35 °FChilly.1 mph82%30.32 "HgN/A
1:00 AM38 °FChilly.7 mph78%30.32 "HgN/A
12:00 AM39 °FChilly.7 mph78%30.32 "HgN/A
11:00 PM
Fri, Mar 27
41 °FQuite cool.7 mph69%30.30 "HgN/A
9:00 PM44 °FQuite cool.9 mph65%30.26 "HgN/A
8:00 PM45 °FQuite cool.6 mph66%30.25 "HgN/A
7:00 PM47 °FCool.3 mph58%30.22 "HgN/A
6:00 PM50 °FCool.3 mph46%30.18 "HgN/A
5:00 PM50 °FCool.5 mph49%30.17 "HgN/A
4:00 PM51 °FCool.1 mph47%30.15 "HgN/A
3:00 PM49 °FCool.2 mph52%30.16 "HgN/A
Weather by CustomWeather, © 2015

See weather overviewHow to use our weather pages